User: anonymous   Login
Location: *
(33.3200°N, 8.3381°W)
Time: 19:58:05
(UTC+00:00)
Language:

CZ-2C R/B - Orbit

View from above orbital plane
View from above orbital plane
View from above satellite
View from above satellite

Ground track
Ground track

The orbit data is extracted from the following two-line orbital elements,

1 31114U 07010B   20185.44849678 -.00000023  00000-0  79140-5 0  9996
2 31114  98.2597  37.2504 0058890 219.7246 139.9612 14.19324200685280
Epoch (UTC): 03 July 2020 10:45:50
Eccentricity: 0.0058890
inclination: 98.2597°
perigee height: 785 km
apogee height: 870 km
right ascension of ascending node: 37.2504°
argument of perigee: 219.7246°
revolutions per day: 14.19324200
mean anomaly at epoch: 139.9612°
orbit number at epoch: 68528

The dashed part of the orbit path shows where the satellite is in the earth's shadow,  

DLR